HVDC transfer

From www.emi.ea.govt.nz provided by the Electricity Authority (New Zealand)
Run at: 20240509105338

Parameters
Date range,13 Aug 2022 - 13 Aug 2022
Time scale,Trading period
Show,Average flow (MW)

Period start,Period end,Trading period,Direction,Energy transfer (GWh),Peak flow (MW),Average flow (MW)
13/08/2022 00:00:00,13/08/2022 00:30:00,1,Northward at Haywards,0.156,311,311
13/08/2022 00:30:00,13/08/2022 01:00:00,2,Northward at Haywards,0.163,326,326
13/08/2022 01:00:00,13/08/2022 01:30:00,3,Northward at Haywards,0.166,331,331
13/08/2022 01:30:00,13/08/2022 02:00:00,4,Northward at Haywards,0.137,274,274
13/08/2022 02:00:00,13/08/2022 02:30:00,5,Northward at Haywards,0.148,296,296
13/08/2022 02:30:00,13/08/2022 03:00:00,6,Northward at Haywards,0.158,316,316
13/08/2022 03:00:00,13/08/2022 03:30:00,7,Northward at Haywards,0.163,326,326
13/08/2022 03:30:00,13/08/2022 04:00:00,8,Northward at Haywards,0.174,347,347
13/08/2022 04:00:00,13/08/2022 04:30:00,9,Northward at Haywards,0.171,342,342
13/08/2022 04:30:00,13/08/2022 05:00:00,10,Northward at Haywards,0.163,326,326
13/08/2022 05:00:00,13/08/2022 05:30:00,11,Northward at Haywards,0.194,388,388
13/08/2022 05:30:00,13/08/2022 06:00:00,12,Northward at Haywards,0.178,355,355
13/08/2022 06:00:00,13/08/2022 06:30:00,13,Northward at Haywards,0.148,295,295
13/08/2022 06:30:00,13/08/2022 07:00:00,14,Northward at Haywards,0.181,362,362
13/08/2022 07:00:00,13/08/2022 07:30:00,15,Northward at Haywards,0.169,337,337
13/08/2022 07:30:00,13/08/2022 08:00:00,16,Northward at Haywards,0.201,401,401
13/08/2022 08:00:00,13/08/2022 08:30:00,17,Northward at Haywards,0.255,509,509
13/08/2022 08:30:00,13/08/2022 09:00:00,18,Northward at Haywards,0.307,613,613
13/08/2022 09:00:00,13/08/2022 09:30:00,19,Northward at Haywards,0.282,563,563
13/08/2022 09:30:00,13/08/2022 10:00:00,20,Northward at Haywards,0.243,485,485
13/08/2022 10:00:00,13/08/2022 10:30:00,21,Northward at Haywards,0.229,458,458
13/08/2022 10:30:00,13/08/2022 11:00:00,22,Northward at Haywards,0.251,502,502
13/08/2022 11:00:00,13/08/2022 11:30:00,23,Northward at Haywards,0.236,471,471
13/08/2022 11:30:00,13/08/2022 12:00:00,24,Northward at Haywards,0.250,499,499
13/08/2022 12:00:00,13/08/2022 12:30:00,25,Northward at Haywards,0.277,554,554
13/08/2022 12:30:00,13/08/2022 13:00:00,26,Northward at Haywards,0.273,545,545
13/08/2022 13:00:00,13/08/2022 13:30:00,27,Northward at Haywards,0.265,529,529
13/08/2022 13:30:00,13/08/2022 14:00:00,28,Northward at Haywards,0.271,542,542
13/08/2022 14:00:00,13/08/2022 14:30:00,29,Northward at Haywards,0.279,557,557
13/08/2022 14:30:00,13/08/2022 15:00:00,30,Northward at Haywards,0.292,583,583
13/08/2022 15:00:00,13/08/2022 15:30:00,31,Northward at Haywards,0.301,602,602
13/08/2022 15:30:00,13/08/2022 16:00:00,32,Northward at Haywards,0.301,601,601
13/08/2022 16:00:00,13/08/2022 16:30:00,33,Northward at Haywards,0.320,640,640
13/08/2022 16:30:00,13/08/2022 17:00:00,34,Northward at Haywards,0.301,602,602
13/08/2022 17:00:00,13/08/2022 17:30:00,35,Northward at Haywards,0.310,620,620
13/08/2022 17:30:00,13/08/2022 18:00:00,36,Northward at Haywards,0.302,603,603
13/08/2022 18:00:00,13/08/2022 18:30:00,37,Northward at Haywards,0.343,685,685
13/08/2022 18:30:00,13/08/2022 19:00:00,38,Northward at Haywards,0.354,707,707
13/08/2022 19:00:00,13/08/2022 19:30:00,39,Northward at Haywards,0.323,645,645
13/08/2022 19:30:00,13/08/2022 20:00:00,40,Northward at Haywards,0.308,615,615
13/08/2022 20:00:00,13/08/2022 20:30:00,41,Northward at Haywards,0.307,613,613
13/08/2022 20:30:00,13/08/2022 21:00:00,42,Northward at Haywards,0.261,522,522
13/08/2022 21:00:00,13/08/2022 21:30:00,43,Northward at Haywards,0.288,576,576
13/08/2022 21:30:00,13/08/2022 22:00:00,44,Northward at Haywards,0.287,573,573
13/08/2022 22:00:00,13/08/2022 22:30:00,45,Northward at Haywards,0.255,510,510
13/08/2022 22:30:00,13/08/2022 23:00:00,46,Northward at Haywards,0.224,447,447
13/08/2022 23:00:00,13/08/2022 23:30:00,47,Northward at Haywards,0.216,431,431
13/08/2022 23:30:00,14/08/2022 00:00:00,48,Northward at Haywards,0.190,379,379
